Radiation Dose at Monitoring Post of Fukushima Daini Nuclear Power Station
Date,Time,MP-1(microSv/h),MP-2(microSv/h),MP-3(microSv/h),MP-4(microSv/h),MP-5(microSv/h),MP-6(microSv/h),MP-7(microSv/h),Wind Direction,Wind Velocity(m/s),Rain
2019/06/13,00:00,0.190,0.173,0.290,0.271,0.267,0.144,0.089,north-northwest,2.8,No
2019/06/13,00:10,0.191,0.172,0.287,0.270,0.269,0.144,0.088,north-northwest,2.1,No
2019/06/13,00:20,0.189,0.173,0.288,0.271,0.267,0.144,0.088,northwest,2.2,No
2019/06/13,00:30,0.191,0.172,0.287,0.269,0.269,0.144,0.089,north-northwest,2.2,No
2019/06/13,00:40,0.190,0.172,0.290,0.271,0.268,0.145,0.088,north-northwest,1.0,No
2019/06/13,00:50,0.190,0.172,0.288,0.270,0.270,0.144,0.088,north-northwest,1.1,No
2019/06/13,01:00,0.190,0.173,0.289,0.270,0.268,0.144,0.088,north-northwest,0.9,No
2019/06/13,01:10,0.191,0.172,0.288,0.271,0.270,0.143,0.089,north-northwest,1.0,No
2019/06/13,01:20,0.189,0.172,0.288,0.269,0.267,0.143,0.088,-,CALM,No
2019/06/13,01:30,0.190,0.173,0.288,0.270,0.270,0.144,0.089,-,CALM,No
2019/06/13,01:40,0.190,0.173,0.289,0.270,0.267,0.144,0.089,-,CALM,No
2019/06/13,01:50,0.189,0.172,0.289,0.271,0.269,0.143,0.089,-,CALM,No
2019/06/13,02:00,0.191,0.173,0.288,0.270,0.270,0.144,0.089,-,CALM,No
2019/06/13,02:10,0.189,0.172,0.289,0.269,0.268,0.145,0.089,-,CALM,No
2019/06/13,02:20,0.190,0.173,0.288,0.269,0.269,0.144,0.088,-,CALM,No
2019/06/13,02:30,0.191,0.172,0.289,0.270,0.268,0.144,0.089,south-southwest,0.7,No
2019/06/13,02:40,0.190,0.172,0.290,0.272,0.269,0.145,0.089,south,1.1,No
2019/06/13,02:50,0.190,0.173,0.288,0.272,0.268,0.145,0.089,east-southeast,0.7,No
2019/06/13,03:00,0.190,0.173,0.287,0.271,0.268,0.143,0.088,south-southeast,0.9,No
2019/06/13,03:10,0.190,0.173,0.289,0.272,0.270,0.145,0.088,south,1.3,No
2019/06/13,03:20,0.188,0.173,0.289,0.271,0.268,0.144,0.089,south,1.3,No
2019/06/13,03:30,0.191,0.172,0.288,0.271,0.269,0.145,0.089,south-southeast,1.9,No
2019/06/13,03:40,0.190,0.172,0.289,0.272,0.270,0.144,0.088,south,2.5,No
2019/06/13,03:50,0.189,0.173,0.288,0.270,0.268,0.144,0.089,south,3.1,No
2019/06/13,04:00,0.191,0.172,0.290,0.271,0.270,0.145,0.088,south-southeast,3.4,No
2019/06/13,04:10,0.190,0.173,0.288,0.270,0.267,0.144,0.090,south-southeast,2.7,No
2019/06/13,04:20,0.190,0.173,0.288,0.270,0.269,0.144,0.090,south-southeast,3.0,No
2019/06/13,04:30,0.190,0.172,0.290,0.272,0.269,0.145,0.089,south-southeast,3.4,No
2019/06/13,04:40,0.191,0.174,0.289,0.270,0.268,0.144,0.089,south-southeast,2.3,No
2019/06/13,04:50,0.191,0.173,0.287,0.271,0.270,0.144,0.089,south-southeast,2.3,No
2019/06/13,05:00,0.189,0.173,0.290,0.272,0.270,0.144,0.090,south-southeast,1.8,No
2019/06/13,05:10,0.191,0.174,0.288,0.271,0.270,0.145,0.089,south-southeast,0.6,No
2019/06/13,05:20,0.190,0.173,0.290,0.272,0.268,0.143,0.090,south-southeast,0.7,No
2019/06/13,05:30,0.189,0.172,0.290,0.269,0.267,0.144,0.089,south,0.6,No
2019/06/13,05:40,0.191,0.172,0.288,0.272,0.268,0.145,0.089,-,CALM,No
2019/06/13,05:50,0.190,0.172,0.289,0.273,0.267,0.145,0.090,south-southwest,0.6,No
2019/06/13,06:00,0.191,0.172,0.289,0.271,0.270,0.144,0.089,-,CALM,No
2019/06/13,06:10,0.190,0.172,0.288,0.272,0.268,0.145,0.089,-,CALM,No
2019/06/13,06:20,0.191,0.171,0.289,0.272,0.267,0.144,0.089,southwest,0.7,No
2019/06/13,06:30,0.190,0.173,0.288,0.272,0.268,0.144,0.088,-,CALM,No
2019/06/13,06:40,0.190,0.173,0.289,0.270,0.265,0.143,0.089,-,CALM,No
2019/06/13,06:50,0.189,0.172,0.288,0.271,0.271,0.144,0.089,-,CALM,No
2019/06/13,07:00,0.190,0.174,0.289,0.270,0.268,0.144,0.090,south-southeast,1.2,No
2019/06/13,07:10,0.190,0.173,0.288,0.269,0.270,0.144,0.089,south-southeast,0.8,No
2019/06/13,07:20,0.190,0.173,0.286,0.268,0.269,0.144,0.090,south,0.9,No
2019/06/13,07:30,0.190,0.174,0.288,0.271,0.269,0.144,0.089,east-southeast,0.7,No
2019/06/13,07:40,0.190,0.173,0.286,0.270,0.270,0.144,0.089,east-southeast,1.0,No
2019/06/13,07:50,0.188,0.172,0.285,0.269,0.266,0.145,0.089,east-southeast,0.7,No
2019/06/13,08:00,0.190,0.173,0.285,0.273,0.269,0.144,0.090,east,1.4,No
2019/06/13,08:10,0.189,0.173,0.288,0.270,0.268,0.144,0.089,east-northeast,1.0,No
2019/06/13,08:20,0.191,0.171,0.288,0.269,0.266,0.144,0.088,east-northeast,1.4,No
2019/06/13,08:30,0.189,0.174,0.286,0.267,0.270,0.144,0.090,east,1.6,No
2019/06/13,08:40,0.190,0.172,0.288,0.269,0.268,0.145,0.090,east-northeast,1.4,No
2019/06/13,08:50,0.191,0.172,0.291,0.271,0.267,0.143,0.090,east-northeast,1.1,No
2019/06/13,09:00,0.189,0.173,0.287,0.270,0.266,0.144,0.089,north-northeast,1.4,No
2019/06/13,09:10,0.191,0.174,0.285,0.269,0.270,0.146,0.089,northeast,1.4,No
2019/06/13,09:20,0.190,0.173,0.289,0.267,0.269,0.144,0.090,east-northeast,1.7,No
2019/06/13,09:30,0.189,0.172,0.290,0.267,0.266,0.143,0.089,east,1.4,No
2019/06/13,09:40,0.190,0.174,0.288,0.268,0.267,0.144,0.089,east,2.4,No
2019/06/13,09:50,0.191,0.173,0.288,0.267,0.271,0.145,0.088,east-southeast,2.3,No
2019/06/13,10:00,0.189,0.172,0.290,0.273,0.270,0.145,0.090,southeast,2.2,No
2019/06/13,10:10,0.188,0.172,0.288,0.273,0.267,0.144,0.090,east-southeast,2.3,No
2019/06/13,10:20,0.188,0.174,0.288,0.272,0.266,0.144,0.089,east-southeast,2.5,No
2019/06/13,10:30,0.190,0.173,0.289,0.270,0.270,0.145,0.089,east-southeast,1.8,No
2019/06/13,10:40,0.190,0.172,0.289,0.270,0.270,0.144,0.089,east-southeast,2.3,No
2019/06/13,10:50,0.189,0.171,0.287,0.267,0.270,0.145,0.089,east-southeast,3.0,No
2019/06/13,11:00,0.187,0.173,0.286,0.269,0.268,0.145,0.090,southeast,2.6,No
2019/06/13,11:10,0.187,0.174,0.285,0.270,0.266,0.146,0.090,east,2.9,No
2019/06/13,11:20,0.192,0.175,0.286,0.274,0.270,0.146,0.089,east,2.9,No
2019/06/13,11:30,0.191,0.172,0.285,0.272,0.270,0.144,0.089,east-southeast,3.2,No
2019/06/13,11:40,0.189,0.172,0.290,0.270,0.268,0.144,0.089,east-southeast,2.9,No
2019/06/13,11:50,0.189,0.174,0.290,0.270,0.268,0.146,0.089,southeast,1.8,No
2019/06/13,12:00,0.188,0.173,0.288,0.269,0.267,0.144,0.090,southeast,1.0,No
2019/06/13,12:10,0.188,0.172,0.287,0.268,0.269,0.144,0.089,south-southeast,0.7,No
2019/06/13,12:20,0.190,0.172,0.286,0.269,0.270,0.145,0.089,east-southeast,1.9,No
2019/06/13,12:30,0.192,0.173,0.286,0.272,0.270,0.144,0.089,south-southeast,2.0,No
2019/06/13,12:40,0.190,0.174,0.286,0.274,0.268,0.145,0.088,east-southeast,3.4,No
2019/06/13,12:50,0.190,0.173,0.286,0.272,0.267,0.145,0.088,southeast,1.9,No
2019/06/13,13:00,0.189,0.172,0.286,0.272,0.267,0.144,0.089,southeast,2.5,No
2019/06/13,13:10,0.187,0.173,0.287,0.270,0.267,0.145,0.089,south-southeast,3.3,No
2019/06/13,13:20,0.189,0.174,0.288,0.270,0.268,0.144,0.090,south-southeast,3.6,No
2019/06/13,13:30,0.189,0.175,0.287,0.270,0.271,0.145,0.088,southeast,3.1,No
2019/06/13,13:40,0.187,0.174,0.291,0.269,0.270,0.145,0.088,southeast,1.5,No
2019/06/13,13:50,0.189,0.173,0.291,0.269,0.269,0.145,0.089,-,CALM,No
2019/06/13,14:00,0.188,0.172,0.291,0.269,0.267,0.144,0.088,-,CALM,No
2019/06/13,14:10,0.188,0.173,0.289,0.272,0.267,0.144,0.089,-,CALM,No
2019/06/13,14:20,0.188,0.175,0.289,0.274,0.268,0.145,0.089,-,CALM,No
2019/06/13,14:30,0.188,0.175,0.288,0.272,0.265,0.145,0.091,south-southeast,2.1,No
2019/06/13,14:40,0.188,0.175,0.289,0.272,0.267,0.145,0.089,south,3.4,No
2019/06/13,14:50,0.188,0.172,0.287,0.269,0.268,0.146,0.089,-,CALM,No
2019/06/13,15:00,0.189,0.173,0.288,0.271,0.268,0.145,0.088,-,CALM,No
2019/06/13,15:10,0.188,0.173,0.287,0.275,0.267,0.144,0.089,south-southeast,2.3,No
2019/06/13,15:20,0.189,0.174,0.288,0.271,0.266,0.145,0.090,south-southeast,4.8,No
2019/06/13,15:30,0.188,0.175,0.289,0.273,0.267,0.145,0.090,south-southeast,5.2,No
2019/06/13,15:40,0.188,0.174,0.289,0.274,0.267,0.146,0.089,south-southeast,5.5,No
2019/06/13,15:50,0.192,0.175,0.292,0.271,0.269,0.145,0.089,south-southeast,5.5,No
2019/06/13,16:00,0.192,0.174,0.291,0.274,0.272,0.145,0.089,south-southeast,6.3,No
2019/06/13,16:10,0.191,0.174,0.288,0.275,0.271,0.145,0.089,south-southeast,3.8,No
2019/06/13,16:20,0.189,0.174,0.293,0.271,0.269,0.145,0.089,south-southeast,4.4,No
2019/06/13,16:30,0.189,0.174,0.291,0.276,0.269,0.144,0.090,south-southeast,7.1,No
2019/06/13,16:40,0.189,0.174,0.290,0.272,0.267,0.144,0.089,south-southeast,7.5,No
2019/06/13,16:50,0.191,0.174,0.293,0.272,0.268,0.144,0.089,south-southeast,7.0,No
2019/06/13,17:00,0.192,0.176,0.290,0.274,0.272,0.146,0.089,south-southeast,6.3,No
2019/06/13,17:10,0.191,0.174,0.294,0.272,0.271,0.144,0.089,south-southeast,7.3,No
2019/06/13,17:20,0.189,0.173,0.291,0.274,0.270,0.145,0.089,south-southeast,7.0,No
2019/06/13,17:30,0.192,0.174,0.289,0.273,0.268,0.146,0.089,south-southeast,6.7,No
2019/06/13,17:40,0.191,0.174,0.291,0.273,0.271,0.146,0.090,south-southeast,8.2,No
2019/06/13,17:50,0.190,0.175,0.289,0.274,0.271,0.145,0.090,south-southeast,7.3,No
2019/06/13,18:00,0.192,0.174,0.291,0.271,0.267,0.145,0.090,south-southeast,8.9,No
2019/06/13,18:10,0.191,0.175,0.291,0.275,0.271,0.145,0.089,south-southeast,9.5,No
2019/06/13,18:20,0.190,0.173,0.290,0.272,0.270,0.145,0.090,south-southeast,10.1,No
2019/06/13,18:30,0.192,0.174,0.292,0.274,0.269,0.144,0.089,south,10.7,No
2019/06/13,18:40,0.191,0.174,0.289,0.271,0.273,0.145,0.089,south-southeast,9.5,No
2019/06/13,18:50,0.190,0.174,0.292,0.274,0.270,0.145,0.089,south,9.8,No
2019/06/13,19:00,0.193,0.173,0.289,0.272,0.273,0.144,0.090,south,8.4,No
2019/06/13,19:10,0.189,0.175,0.291,0.273,0.269,0.145,0.089,south,8.4,No
2019/06/13,19:20,0.193,0.174,0.289,0.274,0.271,0.145,0.090,south,7.6,No
2019/06/13,19:30,0.190,0.175,0.291,0.272,0.270,0.145,0.089,south,7.3,No
2019/06/13,19:40,0.191,0.173,0.290,0.274,0.270,0.145,0.089,south,7.5,No
2019/06/13,19:50,0.191,0.175,0.291,0.272,0.270,0.146,0.090,south,7.6,No
2019/06/13,20:00,0.191,0.175,0.290,0.273,0.270,0.144,0.089,south,7.3,No
2019/06/13,20:10,0.192,0.174,0.291,0.271,0.271,0.145,0.089,south,7.9,No
2019/06/13,20:20,0.190,0.174,0.291,0.274,0.271,0.145,0.089,south,7.6,No
2019/06/13,20:30,0.191,0.175,0.291,0.272,0.270,0.146,0.089,south,7.3,No
2019/06/13,20:40,0.191,0.174,0.291,0.274,0.269,0.145,0.090,south,8.1,No
2019/06/13,20:50,0.192,0.174,0.290,0.272,0.271,0.145,0.089,south,8.1,No
2019/06/13,21:00,0.191,0.175,0.290,0.274,0.270,0.145,0.089,south,8.4,No
2019/06/13,21:10,0.192,0.175,0.291,0.272,0.271,0.145,0.089,south,8.1,No
2019/06/13,21:20,0.189,0.175,0.292,0.274,0.268,0.144,0.089,south,8.7,No
2019/06/13,21:30,0.192,0.174,0.290,0.272,0.271,0.144,0.089,south,8.4,No
2019/06/13,21:40,0.191,0.174,0.292,0.274,0.269,0.145,0.089,south,9.3,No
2019/06/13,21:50,0.191,0.173,0.289,0.272,0.271,0.145,0.090,south,9.2,No
2019/06/13,22:00,0.191,0.174,0.293,0.274,0.268,0.146,0.089,south,8.8,No
2019/06/13,22:10,0.190,0.174,0.289,0.272,0.272,0.145,0.090,south,9.2,No
2019/06/13,22:20,0.191,0.174,0.293,0.274,0.269,0.146,0.090,south,7.9,No
2019/06/13,22:30,0.190,0.174,0.290,0.273,0.270,0.145,0.089,south,7.8,No
2019/06/13,22:40,0.192,0.174,0.293,0.272,0.269,0.146,0.089,south,7.1,No
2019/06/13,22:50,0.191,0.173,0.290,0.275,0.270,0.144,0.090,south,7.1,No
2019/06/13,23:00,0.192,0.174,0.291,0.273,0.270,0.146,0.089,south,6.2,No
2019/06/13,23:10,0.191,0.174,0.290,0.274,0.270,0.145,0.090,south,6.0,No
2019/06/13,23:20,0.193,0.174,0.292,0.272,0.270,0.146,0.090,south,6.6,No
2019/06/13,23:30,0.189,0.175,0.291,0.273,0.270,0.145,0.089,south,6.8,No
2019/06/13,23:40,0.191,0.174,0.292,0.272,0.270,0.146,0.090,south,6.6,No
2019/06/13,23:50,0.190,0.174,0.290,0.274,0.271,0.144,0.089,south-southwest,5.7,No
